www.pogodaiklimat.ru

Погода и климат >> Архив погоды >> Россия >> Чукотка >> Айон Остров


ПОГОДА на Айон Острове

  • Прогноз погоды на Айон Острове
  • Монитор погоды на Айон Острове

АРХИВ ПОГОДЫ на Айон Острове

Время (UTC), дата Ветер
(напр.,м/с)
 
Видим.   Явления Облачность Т
(С)
Тd
(С)
f
(%)
Тe
(С)
Тes
(С)
Комфортность P
(гПа)
Po
(гПа)
Тmin
(С)
Tmax
(С)
R
(мм)
R24
(мм)
S
(см)
09 12.02 ЮЗ 4-5
{6}
20 км ясно -38.5 -42.3 67 -52 -52 опасность
обморожения
1013.9 1011.9 -35.5
12 12.02 ЮЗ 6-7
{8}
20 км позёмок ясно -36.4 -40.1 68 -52 -52 опасность
обморожения
1014.9 1012.9
15 12.02 ЮЗ 6-7
{8}
20 км позёмок ясно -34.3 -37.7 71 -49 -49 опасность
обморожения
1015.6 1013.6
18 12.02 Ю 6-7
{8}
20 км позёмок ясно -37.4 -41.2 67 -53 -53 опасность
обморожения
1016.3 1014.3
21 12.02 Ю 5-7
{8}
20 км позёмок ясно -36.0 -39.6 69 -50 -50 опасность
обморожения
1017.0 1015.0 -38.8 14
00 13.02 Ю 5-6
{7}
20 км позёмок ясно -37.6 -41.5 67 -52 -52 опасность
обморожения
1018.7 1016.6
03 13.02 ЮЗ 3-4
{6}
20 км {метель} ясно -37.8 -41.7 67 -49 -49 опасность
обморожения
1019.9 1017.8
06 13.02 Ю 4-5
{6}
20 км {метель} ясно -39.3 -43.4 65 -53 -53 опасность
обморожения
1021.6 1019.5
09 13.02 Ю 6-6
{7}
20 км позёмок ясно -39.6 -43.7 65 -56 -56 опасность
обморожения
1023.8 1021.7 -35.4
12 13.02 Ю 7-8
{9}
20 км позёмок ясно -38.7 -42.7 66 -56 -56 опасность
обморожения
1025.5 1023.4
15 13.02 Ю 6-7
{8}
20 км позёмок ясно -39.8 -43.8 65 -56 -56 опасность
обморожения
1026.3 1024.2
18 13.02 Ю 5-6
{7}
20 км позёмок ясно -40.4 -44.6 64 -56 -56 опасность
обморожения
1027.1 1025.0
21 13.02 Ю 7-8
{8}
20 км позёмок ясно -39.0 -43.2 64 -56 -56 опасность
обморожения
1026.3 1024.2 -40.8 14
00 14.02 ЮВ 8-9
{9}
20 км позёмок ясно -37.5 -41.3 67 -55 -55 опасность
обморожения
1025.1 1023.0
03 14.02 ЮВ 6-8
{10}
20 км позёмок ясно -35.6 -39.3 69 -51 -51 опасность
обморожения
1023.5 1021.5
06 14.02 В 6-7
{9}
20 км позёмок ясно -38.5 -42.5 66 -54 -54 опасность
обморожения
1021.2 1019.1
09 14.02 В 4-5
{7}
20 км {метель} ясно -37.1 -41.0 67 -50 -50 опасность
обморожения
1019.0 1017.0 -35.3
12 14.02 В 4-5
{6}
20 км {метель} ясно -36.3 -40.0 68 -49 -49 опасность
обморожения
1017.0 1015.0
15 14.02 В 4-5
{6}
20 км ясно -35.5 -39.0 70 -48 -48 опасность
обморожения
1014.1 1012.1
18 14.02 В 4-5
{6}
20 км ясно -36.3 -39.9 69 -49 -49 опасность
обморожения
1012.0 1010.0
21 14.02 В 3-4
{5}
20 км 3/0
[Ac trans]
-35.5 -39.1 69 -46 -46 опасность
обморожения
1009.8 1007.8 -37.3 14
00 15.02 В 3-5
{5}
20 км 8/0
[Ac trans Ci fib]
-34.4 -37.8 71 -45 -45 опасность
обморожения
1007.9 1005.9
03 15.02 СВ 2-3
{5}
20 км 10/0
[Ac trans Ci fib]
-31.6 -34.7 74 -39 -39 опасность
обморожения
1005.2 1003.3
06 15.02 З 2-2
{3}
20 км 8/0
[Ac trans Ci fib]
-30.9 -33.9 75 -39 -39 опасность
обморожения
1004.0 1002.1
09 15.02 СЗ 1-2
{2}
20 км 10/0
[Ac und]
-27.3 -29.8 79 -31 -31 опасность
обморожения
1002.7 1000.8 -27.3
12 15.02 З 1-2
{2}
20 км 10/0
[Ac und]
-27.0 -29.5 79 -31 -31 опасность
обморожения
1001.7 999.8
15 15.02 ЮЗ 2-2
{3}
20 км 8/0
[Ac trans]
-28.4 -31.0 78 -36 -36 опасность
обморожения
1000.9 999.0
18 15.02 ЮЗ 3-4
{5}
20 км 10/0
[Ac und]
-29.5 -32.2 77 -39 -39 опасность
обморожения
1000.6 998.7
21 15.02 ЮЗ 3-4
{4}
20 км 4/0
[Ac trans]
-30.5 -33.4 76 -40 -40 опасность
обморожения
1000.9 999.0 -30.5 14
00 16.02 З 2-3
{4}
4000 м слаб. снег 10/0
[As op]
-27.9 -30.6 78 -35 -35 опасность
обморожения
1000.4 998.5 -30.6
03 16.02 З 2-3
{4}
4000 м слаб. снег 10/0
[As op]
-25.3 -27.7 80 -32 -32 опасность
обморожения
998.8 996.9
06 16.02 З 4-4
{5}
20 км {снег} 10/0
[As op]
-24.4 -26.9 80 -34 -34 опасность
обморожения
997.9 996.0
09 16.02 С 5-6
{7}
20 км позёмок 8/0
[Ac trans]
-21.6 -23.5 85 -32 -32 опасность
обморожения
995.0 993.2 -21.3 0.6
12 16.02 СЗ 6-7
{8}
20 км позёмок 10/0
[Ac und]
-21.0 -22.7 86 -32 -32 опасность
обморожения
991.4 989.6
15 16.02 С 3-4
{7}
4000 м слаб. снег {метель} 10/0
[As op]
-16.7 -18.6 85 -24 -24 988.4 986.6
18 16.02 В 2-3
{4}
4000 м слаб. снег {метель} 10/0
[As op]
-15.9 -17.8 85 -21 -21 987.3 985.5
21 16.02 В 3-3
{3}
20 км {снег} 6/0
[Ac trans Ci fib]
-24.6 -26.8 82 -33 -33 опасность
обморожения
987.6 985.7 -24.6 0.7 15
00 17.02 штиль 0
{3}
20 км {снег} 8/0
[Ac trans]
-25.0 -27.1 83 -25 -25 988.4 986.5 -27.8
03 17.02 З 2-2
{3}
20 км 6/0
[Ac trans]
-24.6 -26.8 82 -31 -31 опасность
обморожения
989.2 987.3
06 17.02 З 6-7
{7}
4000 м слаб. снег {метель} 10/0
[As op]
-18.8 -20.3 88 -29 -29 990.8 989.0
09 17.02 З 10-13
{14}
4000 м слаб. снег {метель} 10/0
[As op]
-20.1 -21.7 87 -34 -34 опасность
обморожения
992.6 990.8 -18.3 0.5
12 17.02 З 10-12
{16}
1000 м слаб. снег {метель} 10/0
[As op]
-22.4 -24.4 84 -37 -37 опасность
обморожения
995.8 994.0
15 17.02 З 10-13
{15}
1000 м метель {снег} 10/0
[As op]
-23.9 -26.0 83 -39 -39 опасность
обморожения
997.8 995.9
18 17.02 З 13-16
{16}
1000 м метель {снег} 10/0
[As op]
-24.0 -26.1 83 -40 -40 опасность
обморожения
999.4 997.5
21 17.02 З 9-11
{17}
4000 м метель 8/0
[Ac trans]
-24.9 -27.1 82 -39 -39 опасность
обморожения
1001.7 999.8 -24.9 0.6 14
00 18.02 З 10-13
{13}
4000 м метель 10/0
[Ac und]
-24.7 -26.8 83 -40 -40 опасность
обморожения
1003.3 1001.4
03 18.02 З 9-12
{14}
4000 м метель 9/0
[Ac trans Ci fib]
-25.4 -27.7 81 -40 -40 опасность
обморожения
1004.2 1002.3
06 18.02 З 9-11
{13}
4000 м метель 9/0
[Ac trans Ci fib]
-26.3 -28.7 80 -41 -41 опасность
обморожения
1006.1 1004.2
09 18.02 З 9-12
{13}
4000 м метель 10/0
[Ac und]
-26.5 -28.9 80 -42 -42 опасность
обморожения
1007.6 1005.7 -24.4
12 18.02 З 8-10
{12}
10 км позёмок 10/0
[Ac und]
-27.1 -29.6 79 -42 -42 опасность
обморожения
1009.7 1007.8
15 18.02 З 6-8
{10}
20 км позёмок 8/0
[Ac trans]
-28.8 -31.4 78 -42 -42 опасность
обморожения
1011.3 1009.4
18 18.02 З 4-5
{9}
20 км {метель} 6/0
[Ac trans]
-28.9 -31.5 78 -40 -40 опасность
обморожения
1012.8 1010.9
21 18.02 З 5-6
{8}
20 км позёмок 3/0
[Ac trans]
-29.5 -32.2 77 -42 -42 опасность
обморожения
1014.4 1012.5 -29.8 14
00 19.02 З 6-7
{9}
20 км позёмок 4/0
[Ac trans Ci fib]
-28.6 -31.3 77 -42 -42 опасность
обморожения
1015.7 1013.8
03 19.02 З 5-5
{7}
20 км позёмок 3/0
[Ac trans]
-28.9 -31.6 77 -41 -41 опасность
обморожения
1015.8 1013.9
06 19.02 З 3-3
{5}
20 км {метель} 8/0
[Ac trans]
-29.1 -31.9 77 -39 -39 опасность
обморожения
1016.0 1014.1

 

Местоположение метеостанции Айон Остров (Чукотка, Россия): широта 69.93 долгота 167.90 высота над уровнем моря 14 м.

В архиве по умолчанию представлена погода на Айон Острове за последнюю неделю. Архивные данные за месяц целиком и за предыдущие месяцы, начиная с января 2011 года, Вы можете получить, выбрав интересующий диапазон дат из раскрывающегося списка и нажав кнопку "Ввод!".


*Определитесь, кто Вы:
робот инопланетянин человек

Внимание! Время в таблицах - всемирное. Для получения местного времени необходимо прибавить поправку, которая равна 12 ч.

Смотрите также архив погоды в соседних городах и на ближайших метеорологических станциях:

Погода в Раучуе (Чукотка, Россия) (72 км)
Погода в Певеке (Чукотка, Россия) (92 км)
Погода в Валькаркае (Чукотка, Россия) (115 км)
Погода на 21 км (Чукотка, Россия) (117 км)
Погода в Чауне (Чукотка, Россия) (160 км)
Погода в Комсомольской (Чукотка, Россия) (211 км)
Погода в Билибино (Чукотка, Россия) (217 км)
Погода в Бухте Амбарчик (Чукотка, Россия) (218 км)
Погода в Островном (Чукотка, Россия) (252 км)
Погода в Паляваам-Глубокой (Чукотка, Россия) (257 км)

Пояснения к столбцам:

Ветер - указаны скорость ветра в м/с - средняя за 10 мин, порывы в срок и между сроками (в фигурных скобках) и направление, откуда дует ветер: С - северный, СВ - северо-восточный, В - восточный, ЮВ - юго-восточный, Ю - южный, ЮЗ - юго-западный, З - западный, СЗ - северо-западный.
Видимость - горизонтальная дальность видимости в метрах или километрах. При видимости от 1 до 10 км при отсутствии осадков обычно наблюдается дымка, при ухудшении видимости до 1 км и менее - туман. В сухую погоду видимость может ухудшаться дымом, пылью или мглою.
Явления - указаны атмосферные явления, наблюдавшиеся в срок или в последний час перед сроком; фигурными скобками обозначены явления, наблюдавшиеся между сроками (за 1-3 часа до срока); квадратными скобками обозначены град или гололедные отложения с указанием их диаметра в мм.
Облачность - указаны через наклонную черту общая и нижняя облачность в баллах и высота нижней границы облаков в метрах; квадратными скобками обозначены формы облаков: Ci - перистые, Cs - перисто-слоистые, Cc - перисто-кучевые, Ac - высококучевые, As - высокослоистые, Sc - слоисто-кучевые, Ns - слоисто-дождевые, Cu - кучевые, Cb - кучево-дождевые. Подробнее классификацию облаков см. в Атласе облаков (PDF).
T - Температура воздуха - температура, измеренная на высоте 2 м над землей.
Td - Температура точки росы - температура, при понижении до которой содержащийся в воздухе водяной пар достигнет насыщения.
f - Относительная влажность воздуха - влажноcть воздуха, измеренная на высоте 2 м над землей.
Te - Эффективная температура - температура, которую ощущает одетый по сезону человек в тени. Характеристика душности погоды. При расчете учитывается влияние влажности воздуха и скорости ветра на теплоощущения человека.
Tes - Эффективная температура на солнце - температура, которую ощущает человек, с поправкой на солнечный нагрев. Характеристика знойности погоды. Зависит от высоты солнца над горизонтом, облачности и скорости ветра. Ночью, в пасмурную погоду, а также при ветре 12 м/с и более поправка равна нулю.
P - Атмосферное давление - приведенное к уровню моря атмосферное давление.
Po - Атмосферное давление - измеренное на уровне метеостанции атмосферное давление.
Tmin - Минимальная температура - минимум температуры воздуха на высоте 2 м над землей.
Tmax - Максимальная температура - максимум температуры воздуха на высоте 2 м над землей.
R - Количество осадков - Количество выпавших осадков за период времени, мм. При наведении курсора мыши на число - период времени, за который выпало указанное количество осадков.
R24 - Количество осадков - Количество выпавших осадков за 24 часа, мм.
S - Снежный покров - Высота снежного покрова, см. При наведении курсора мыши на число - состояние снежного покрова и степень покрытия местности в баллах.